Wind_Speed
9 8 7 7 6 6 5 4 5 6 7 7 7 6 6 7 8 10 11 12 12 14 15 15 15 14 13 12 10 9 7 7 8 11 12 11 9 8 7 6 5 4 3 1 3 4 7 10 11 11 6 3 5 8 11 13 8 5 1 4 3 5 6 8 9 8 10 11 10 10 10 11 12 15 15 12 11 11 12 11 11 14 15 14 9 8 8 7
9 8 8 8 7 6 5 5 4 4 5 7 7 7 6 5 6 7 9 10 10 11 12 14 14 15 14 13 12 10 9 8 8 9 10 11 11 10 9 8 7 5 5 3 2 4 7 8 10 7 3 5 6 8 8 8 8 7 4 3 5 7 8 9 9 7 9 12 11 10 10 10 11 13 14 12 13 13 14 14 14 16 15 11 8 8 7 7
9 8 8 8 8 7 6 5 4 4 4 5 6 7 6 6 5 5 6 8 9 9 10 12 12 14 14 14 13 11 10 9 10 9 8 10 11 11 10 9 8 7 6 4 3 3 7 4 4 6 6 8 7 8 5 5 7 5 5 2 7 9 11 11 10 9 10 12 12 11 10 11 11 12 13 13 14 13 14 15 15 15 12 10 9 8 8 8
8 8 8 8 8 7 7 6 5 4 4 4 5 5 6 6 5 4 4 5 7 8 9 9 10 12 12 14 12 11 11 9 12 10 7 9 10 12 11 11 10 9 7 5 4 2 6 6 3 5 6 7 5 7 6 4 7 3 4 3 6 9 11 11 10 11 12 11 12 12 11 12 11 10 12 14 14 13 13 13 14 15 11 10 9 9 10 9
8 8 8 7 7 7 7 6 6 5 4 4 4 5 5 6 5 4 4 4 5 6 8 8 8 9 10 12 11 11 7 5 14 12 7 9 9 11 12 11 11 10 9 6 5 3 5 4 2 5 6 7 6 4 2 6 8 3 4 5 5 6 8 11 11 12 13 12 10 11 11 11 12 11 13 12 12 12 12 13 15 15 11 10 10 11 11 10
7 7 7 7 7 7 7 7 6 6 5 4 4 5 5 5 5 5 4 3 3 4 5 6 7 7 7 9 9 11 8 8 19 15 9 10 9 9 11 12 12 11 10 7 6 4 4 3 2 5 6 8 8 6 3 6 5 1 4 4 4 5 8 11 13 13 14 13 12 12 11 11 12 14 14 10 11 13 13 15 16 14 13 12 12 11 12 10
8 7 7 7 6 6 7 7 7 6 6 5 4 4 5 5 5 5 4 3 3 2 2 4 5 5 6 6 8 11 11 15 20 13 10 10 9 9 9 11 12 11 11 8 7 5 3 1 4 5 8 8 7 5 2 3 5 3 4 2 1 4 10 13 14 14 14 15 15 14 11 11 11 14 16 11 11 14 14 17 16 15 15 13 13 12 11 11
9 8 7 7 6 6 6 6 7 7 6 6 5 4 4 5 5 4 4 3 3 2 2 1 2 4 4 4 7 8 9 17 16 10 12 11 10 10 8 10 10 11 11 9 8 5 3 3 5 6 8 9 7 4 3 4 9 9 5 3 2 3 9 14 16 15 14 14 15 14 12 10 9 11 16 14 13 15 16 17 17 17 16 14 14 12 10 11
10 9 8 7 7 6 6 6 6 6 7 6 6 5 5 4 5 5 4 4 3 2 2 1 1 3 4 6 7 5 8 17 12 10 12 11 11 11 9 9 9 10 11 10 10 7 4 3 5 6 8 9 7 6 6 7 10 9 6 5 5 5 8 13 17 16 16 16 15 14 12 10 10 11 14 14 14 15 17 17 17 17 16 15 14 12 10 12
10 9 8 8 7 6 6 6 5 6 6 7 7 7 6 5 5 4 4 4 3 2 2 2 2 4 8 10 10 3 12 16 10 10 12 12 12 11 11 10 9 10 10 11 11 8 6 5 9 8 6 7 5 6 9 12 11 9 8 7 6 6 8 13 17 18 18 17 16 15 13 11 11 13 13 14 15 16 17 17 17 17 15 16 13 11 12 12
11 10 9 8 7 6 6 6 5 5 5 6 7 7 7 6 6 5 4 4 3 3 3 3 3 7 11 12 9 1 13 13 10 10 9 12 13 11 12 11 10 10 11 11 10 10 9 7 11 8 3 5 5 6 8 9 10 9 9 7 5 5 8 11 16 20 20 18 17 15 15 12 10 13 14 15 16 16 18 17 17 16 16 15 13 13 14 12
11 10 10 9 8 7 6 6 5 5 4 5 6 7 7 7 7 6 5 4 3 3 4 4 4 6 8 9 6 5 10 11 11 9 8 10 11 11 12 11 12 11 13 12 7 9 11 12 12 9 4 7 8 9 7 6 10 11 9 8 6 5 6 8 13 20 20 19 19 16 15 13 11 13 15 16 16 17 18 17 16 16 16 15 13 14 14 13
11 10 10 9 8 7 6 6 6 6 5 6 6 7 7 7 8 7 6 5 4 4 4 5 5 5 5 4 3 5 7 7 8 7 7 8 8 10 10 11 12 12 14 15 11 9 11 16 16 11 7 8 8 10 8 7 11 12 8 8 8 4 5 6 10 19 19 18 20 17 14 13 11 13 16 15 16 18 18 17 16 16 16 15 12 13 13 12
12 11 10 9 8 7 7 7 7 7 6 6 7 7 8 8 8 8 7 6 5 6 6 7 6 4 4 0 6 5 5 5 4 5 6 6 7 7 8 10 11 11 13 15 17 16 14 16 17 14 10 8 8 10 10 10 13 14 12 9 8 3 4 7 8 19 21 19 20 18 14 12 9 13 16 16 17 18 17 17 16 15 15 14 12 13 12 11
13 12 10 9 8 8 9 9 9 9 8 8 8 8 8 9 9 9 9 8 9 9 9 10 9 9 6 4 11 8 5 3 2 3 4 6 3 2 7 8 9 11 12 14 17 19 17 14 13 13 10 9 10 12 10 10 14 16 13 10 9 7 5 5 8 18 21 21 21 17 14 14 12 15 17 15 17 18 18 17 15 15 15 14 13 12 11 11
13 12 10 9 9 10 11 11 11 10 9 9 8 9 9 9 9 10 11 12 13 13 13 13 11 11 9 4 12 12 4 1 2 2 3 5 3 1 10 8 7 9 10 12 15 17 18 14 11 11 11 11 11 12 10 10 13 13 12 10 10 11 7 5 8 15 22 22 22 18 15 17 17 18 19 16 17 17 18 17 15 15 15 14 14 13 12 12
12 11 9 9 9 10 11 12 11 11 10 10 10 10 11 12 10 9 13 16 16 14 13 14 12 7 4 3 8 10 4 1 4 2 3 5 6 6 9 5 4 7 8 10 13 14 15 12 10 11 11 11 11 11 11 10 8 8 10 9 9 11 7 6 8 14 24 23 22 21 14 15 18 19 21 18 16 17 17 18 16 15 15 14 14 14 13 12
11 10 8 8 9 10 11 11 11 11 10 10 11 11 13 14 13 8 10 13 14 15 11 10 12 7 3 2 3 2 0 5 5 1 2 4 6 7 5 2 2 5 6 8 10 10 11 10 9 10 12 13 12 13 11 7 6 10 12 10 9 10 8 7 8 13 24 24 23 22 14 15 19 19 21 18 17 18 17 17 17 16 15 14 14 14 13 12
9 8 7 7 8 8 10 10 10 10 9 10 10 11 12 12 14 11 5 7 8 10 8 5 8 8 3 2 2 5 3 5 3 1 0 2 4 5 4 2 2 3 4 6 8 7 8 8 9 11 12 13 13 13 9 7 7 9 9 9 10 8 6 7 8 11 22 24 23 21 15 17 20 19 20 19 19 20 17 17 17 17 17 14 14 15 14 13
8 7 5 6 6 7 9 9 10 9 9 9 6 9 13 11 10 9 5 8 9 3 3 3 2 5 2 2 1 4 3 7 5 2 2 1 3 2 3 3 3 4 5 8 8 7 7 10 12 13 14 12 11 10 5 5 8 8 7 8 9 7 5 6 7 11 21 23 21 18 14 17 20 18 19 19 19 20 18 18 18 18 17 15 15 15 15 14
6 5 4 4 5 7 7 8 9 9 9 8 4 7 11 7 2 2 3 8 9 2 1 5 5 3 3 3 4 5 2 6 4 2 2 1 4 3 3 3 5 7 7 8 9 8 8 13 14 12 14 13 9 6 2 4 8 7 7 8 8 6 4 4 5 11 20 20 19 18 15 18 23 20 20 22 22 21 20 19 18 18 18 16 16 16 16 16
4 4 3 2 4 5 6 7 7 8 9 7 5 9 9 3 3 3 4 5 4 3 1 2 2 3 4 4 3 2 4 4 3 3 3 1 3 4 4 3 5 9 7 7 10 10 10 14 16 14 15 13 7 6 5 7 8 6 7 7 6 5 5 2 3 9 17 17 17 20 17 18 25 24 20 23 24 23 23 21 18 18 18 17 17 16 17 17
3 2 1 1 2 3 4 5 6 8 8 7 6 8 6 2 5 6 9 7 4 4 2 3 2 3 7 7 2 5 4 5 4 5 4 2 5 4 5 7 7 9 9 10 11 12 13 13 12 13 15 10 6 7 6 7 7 5 7 5 4 5 5 3 4 7 14 16 13 16 16 15 21 23 20 22 23 23 23 21 19 20 18 17 17 17 17 18
3 2 2 1 1 2 3 3 5 5 5 8 9 7 2 1 4 4 4 3 5 1 2 3 1 3 3 2 3 4 2 4 2 7 6 3 6 3 4 6 8 9 10 10 11 14 17 11 6 9 11 9 8 9 8 9 8 5 4 1 2 4 3 5 6 7 12 16 13 12 13 14 17 19 20 23 22 23 22 19 19 21 20 18 17 18 17 18
4 4 3 3 3 2 2 1 2 1 4 8 8 8 3 1 1 1 1 1 6 3 3 2 2 2 2 1 2 4 2 3 2 6 7 2 5 6 5 5 8 9 8 7 8 14 18 12 8 9 9 10 9 10 10 11 10 8 7 3 2 2 3 7 4 3 7 12 15 13 10 11 17 20 20 22 22 24 23 21 20 20 20 21 19 18 18 19
6 5 5 6 5 4 4 3 1 4 10 7 5 4 3 2 3 2 5 8 8 3 3 1 1 2 2 3 2 3 3 6 2 4 6 5 6 6 6 5 7 7 5 7 9 13 15 10 7 8 8 10 11 12 12 12 12 9 8 5 1 1 5 7 1 4 4 6 10 15 12 8 15 22 22 22 20 20 22 21 21 20 21 22 21 19 19 19
7 7 7 7 6 6 5 3 3 4 8 5 7 3 3 3 6 6 7 9 6 5 5 3 1 2 2 1 3 4 3 6 5 4 3 4 4 3 6 4 7 8 5 7 9 9 13 12 8 7 8 10 12 14 11 11 14 8 5 5 2 3 5 4 1 2 4 4 4 12 16 11 12 19 24 25 20 18 20 19 19 20 21 21 22 20 20 21
8 8 8 9 8 7 6 4 4 2 1 4 5 4 5 5 7 7 7 6 3 5 5 5 2 4 1 2 3 4 4 4 4 5 4 4 2 4 7 5 7 7 4 8 9 4 5 11 12 9 11 12 13 13 10 11 12 3 4 3 3 4 4 3 3 5 5 5 5 9 14 12 10 13 21 26 25 21 20 20 20 22 22 21 22 20 21 22
9 9 9 9 9 9 7 6 5 4 2 2 1 3 5 7 7 7 7 6 2 2 5 6 6 4 1 4 3 1 3 5 3 4 6 7 4 7 9 6 6 8 6 10 13 7 3 6 9 8 11 12 12 12 10 12 11 5 7 2 2 5 5 3 6 7 5 5 8 10 12 12 7 10 18 24 28 26 22 21 22 24 23 22 22 21 21 23
10 10 10 10 11 10 9 8 7 5 3 2 1 2 4 6 7 8 7 3 0 4 3 3 4 2 2 7 7 2 3 6 3 2 5 6 4 5 6 6 5 8 10 11 14 14 10 9 10 9 11 12 12 12 11 11 9 6 3 6 7 7 7 5 6 5 3 4 8 10 13 14 6 8 17 22 26 27 26 24 22 23 24 23 24 22 21 23
11 11 10 10 11 11 10 10 9 6 5 3 2 2 4 6 7 10 6 3 3 3 1 2 4 4 4 6 9 8 4 5 5 3 5 6 5 5 6 8 8 7 10 12 13 15 14 13 13 11 11 11 12 14 12 8 5 4 7 10 9 8 8 6 5 5 4 3 4 8 13 14 8 5 11 19 23 24 26 26 24 24 25 24 25 23 22 23
12 12 10 11 12 12 12 11 8 7 6 5 4 3 5 7 10 12 8 6 5 2 0 3 2 2 4 3 5 5 4 6 6 5 6 7 9 9 8 8 9 9 10 11 10 13 17 16 13 10 10 10 12 13 11 9 9 7 6 9 9 7 7 6 4 4 4 3 1 6 10 10 10 9 8 14 22 23 23 23 22 23 25 27 27 25 24 23
13 12 11 11 11 12 12 10 8 8 7 7 6 4 6 10 11 9 6 6 2 2 3 5 2 2 4 6 6 2 3 4 3 6 7 7 8 10 10 5 6 10 10 10 8 7 9 11 11 9 10 10 10 12 12 10 12 13 12 12 11 7 5 5 3 3 2 2 2 3 6 6 9 9 3 6 14 16 16 19 21 23 25 27 26 25 26 25
13 12 11 11 10 12 12 11 10 9 8 8 8 6 9 12 12 8 8 6 3 3 4 5 5 5 5 6 5 4 6 5 4 5 5 6 8 8 11 8 4 7 8 10 10 9 8 4 9 8 5 8 9 10 14 12 12 15 14 13 12 11 8 5 3 1 2 3 4 1 3 3 5 6 4 6 10 11 12 16 21 24 26 26 25 25 27 27
14 12 11 10 10 11 12 12 12 10 9 10 9 9 12 14 12 8 5 0 1 3 4 4 4 7 8 6 3 3 7 6 4 5 5 8 8 5 3 6 1 2 5 7 7 7 9 4 5 5 1 3 4 7 10 13 14 11 11 12 13 13 9 6 6 4 5 3 2 2 1 3 4 4 5 6 8 10 12 13 16 19 21 24 27 27 27 28
14 12 11 10 10 11 12 13 14 13 11 10 10 14 16 14 12 6 3 1 1 5 5 5 5 8 10 10 7 4 5 4 4 7 8 8 7 4 2 3 3 2 4 9 9 7 8 3 4 2 4 3 4 8 9 14 13 7 7 13 14 12 10 8 8 6 6 5 1 2 2 1 0 3 4 5 5 7 11 13 15 15 15 20 26 29 29 27
14 12 11 9 9 10 12 14 15 14 13 12 14 17 16 14 11 6 5 6 6 5 6 8 6 7 10 9 10 8 6 6 5 7 9 7 5 2 2 2 0 2 7 7 9 9 8 8 5 5 9 9 7 8 10 14 15 11 10 11 9 9 11 9 6 6 7 4 2 2 1 3 4 2 2 3 3 5 7 10 15 17 17 19 24 30 31 29
12 11 9 7 9 9 11 14 16 16 14 12 17 19 18 16 10 6 6 6 7 7 9 11 5 4 10 7 8 11 6 4 5 6 6 4 3 3 5 5 2 2 6 5 8 6 3 9 9 4 6 9 8 10 12 13 17 18 14 10 8 8 9 7 6 6 6 3 1 3 2 2 4 4 4 4 4 4 5 6 12 17 19 19 22 26 27 28
10 8 7 6 8 7 9 14 16 17 15 14 18 18 16 16 11 7 6 5 7 9 9 11 7 6 10 3 2 7 5 2 4 5 4 3 3 2 4 6 4 1 3 4 8 8 4 9 10 5 6 12 12 9 10 10 15 17 10 7 9 9 8 9 9 10 7 1 1 2 1 2 4 4 4 4 1 2 3 5 10 15 18 20 22 24 25 30
7 4 3 9 11 5 7 13 17 19 18 18 20 18 14 14 12 10 9 7 9 10 9 9 6 5 9 6 5 7 8 5 6 8 5 6 5 4 3 5 5 4 6 4 5 7 6 8 9 8 7 13 14 8 7 9 10 13 10 8 10 11 11 11 12 14 9 3 3 0 1 2 4 3 4 4 1 2 3 6 9 12 16 19 21 23 29 35
3 2 5 15 15 10 8 11 17 20 19 19 20 19 17 14 11 8 8 8 10 10 9 9 7 6 7 9 7 7 7 4 6 9 7 6 5 6 4 3 4 6 8 5 4 6 6 6 7 9 8 10 13 10 12 15 11 9 10 10 11 11 12 11 9 12 9 3 7 6 1 4 7 6 4 5 3 1 2 4 9 13 14 17 20 22 29 34
4 3 8 17 17 14 10 11 16 18 19 20 19 18 15 11 10 9 7 8 9 9 9 10 11 9 8 9 6 5 7 6 8 8 7 5 4 1 3 3 2 3 6 8 7 7 6 7 10 11 10 13 14 11 10 11 11 9 9 11 12 13 14 13 9 8 9 7 9 9 4 4 8 9 5 4 2 3 4 7 12 15 14 14 17 19 22 24
9 3 8 15 18 16 12 12 16 18 19 19 19 20 15 10 12 12 10 10 9 9 10 10 9 9 10 10 7 5 6 8 10 9 5 4 3 3 4 2 3 4 7 9 8 7 5 6 9 11 13 14 15 13 11 10 10 10 10 10 12 12 12 13 12 9 10 7 3 5 2 4 8 10 6 4 2 4 7 9 10 12 12 11 13 13 12 14
12 10 7 11 17 14 14 16 16 17 19 17 17 21 18 13 13 13 13 12 11 10 10 9 9 11 10 8 7 8 7 7 9 9 7 4 2 1 2 2 3 5 6 7 7 7 6 4 7 9 10 11 10 10 10 11 11 9 5 5 10 11 9 9 11 10 9 7 3 3 3 5 9 10 4 2 2 2 5 7 6 8 11 11 13 13 11 13
8 7 6 12 16 13 14 18 16 16 18 17 17 19 18 16 15 14 13 12 12 11 10 10 9 10 9 7 8 11 10 9 8 7 7 7 8 9 8 6 5 5 6 8 8 7 7 8 10 8 7 8 6 6 8 11 12 9 6 7 9 10 9 9 9 8 8 8 8 7 5 7 10 9 4 3 3 1 2 4 6 8 10 10 11 12 11 14
4 4 5 11 17 14 13 16 17 19 18 17 17 17 19 20 17 16 16 14 14 13 13 13 10 7 8 8 8 10 11 10 9 8 9 10 9 6 6 5 5 8 13 16 13 8 9 13 13 10 10 11 9 8 10 12 13 11 9 9 8 9 10 12 11 10 8 7 8 7 7 10 11 9 6 6 4 1 2 4 7 9 10 9 9 9 10 13
4 3 7 10 13 13 13 14 15 18 18 17 16 15 17 19 18 18 18 16 15 14 13 14 11 8 9 10 10 11 12 12 12 12 13 14 9 6 7 6 6 10 15 16 13 9 10 12 11 10 12 13 13 13 12 11 12 12 11 10 8 8 10 12 12 11 8 6 6 6 7 10 10 8 7 7 4 3 4 6 10 10 9 9 8 8 10 13
4 6 7 10 11 10 11 13 13 15 17 17 18 18 16 13 15 18 17 15 12 14 15 15 15 13 11 12 12 12 11 13 14 15 15 13 9 10 12 9 6 9 11 9 8 10 11 10 7 8 10 11 11 13 12 10 10 10 10 9 7 7 9 11 14 12 8 9 7 7 9 10 9 8 7 7 5 5 6 6 11 12 9 10 11 10 10 11
8 11 11 12 14 12 11 13 13 14 15 15 17 17 16 15 16 16 16 14 10 12 15 16 15 14 13 12 12 12 11 12 12 12 13 12 10 12 13 10 6 6 7 7 8 11 11 7 5 6 10 11 10 10 11 10 9 10 10 9 6 5 6 9 12 12 9 9 6 7 10 11 10 8 7 9 9 7 6 4 11 16 12 11 13 13 11 12
11 15 16 16 17 17 15 14 13 14 14 15 16 14 14 16 17 16 17 18 13 11 14 15 15 15 15 14 14 13 14 13 11 9 10 12 12 13 14 14 10 7 7 7 6 7 9 8 6 5 7 9 8 9 11 10 9 10 11 10 7 7 9 7 5 5 7 6 4 7 9 9 10 10 9 12 14 10 8 6 9 14 12 11 13 13 12 12
11 13 15 16 17 20 19 15 12 14 15 16 16 15 15 16 17 17 18 19 17 15 14 14 15 16 15 16 17 13 11 13 13 11 12 15 13 10 11 12 11 10 12 10 7 7 9 9 6 4 5 9 8 8 10 10 9 8 9 10 9 10 13 10 4 4 6 5 5 9 11 10 11 13 13 16 17 15 14 12 9 10 9 11 14 14 12 11
12 12 14 15 16 17 17 14 13 15 15 15 15 16 17 17 17 18 19 19 20 20 17 15 14 14 14 16 16 11 10 13 14 11 13 15 14 11 10 12 10 9 12 13 10 8 9 9 9 7 8 9 7 7 9 8 8 8 7 8 8 7 9 8 3 3 6 6 7 10 13 13 14 16 18 19 18 17 18 16 12 10 8 10 13 13 12 11
Wind_Direction
25 23 25 26 24 22 7 331 290 275 276 280 287 291 286 276 266 261 261 259 258 255 252 250 249 250 250 251 249 250 253 251 244 239 237 235 234 232 225 221 223 219 209 174 103 104 88 58 30 42 40 300 277 307 359 33 52 46 5 213 196 153 123 104 136 165 153 146 145 148 152 145 141 134 118 114 129 123 116 118 118 131 153 165 157 138 138 139
23 21 23 24 24 23 17 10 344 305 285 278 281 288 296 294 278 267 261 258 258 256 253 250 248 247 248 250 249 250 252 254 255 248 242 236 233 232 228 227 227 226 220 203 156 119 85 44 354 351 330 293 304 318 343 20 37 38 40 184 182 156 144 116 121 157 156 148 146 144 149 146 144 131 119 123 127 122 122 122 127 142 161 166 143 129 131 132
22 22 22 21 20 19 18 14 3 348 318 294 285 284 295 299 298 287 269 261 257 254 253 250 247 245 244 245 247 249 251 253 255 253 246 238 235 232 230 230 227 233 231 216 206 127 102 124 281 293 277 282 306 306 296 22 31 38 45 154 175 160 156 140 129 150 155 147 145 143 148 144 137 126 123 130 129 129 130 128 134 141 149 145 131 132 130 130
20 19 18 18 15 14 13 12 8 357 339 321 304 290 290 296 307 305 292 276 260 254 251 249 247 244 240 241 241 244 248 255 253 249 246 240 237 233 230 231 229 233 236 230 229 156 117 145 234 279 274 277 292 281 267 4 359 352 32 67 157 167 171 173 153 150 153 144 146 148 145 136 127 126 133 135 133 135 137 137 142 143 142 136 130 131 130 136
14 10 11 10 7 6 3 5 6 360 351 338 324 309 296 294 303 309 314 300 276 262 252 250 248 244 241 237 232 234 232 248 247 239 238 240 236 235 232 230 231 232 236 233 228 184 124 126 245 273 280 288 305 293 290 350 330 329 42 62 133 176 183 182 156 147 157 150 149 143 139 140 131 137 140 138 139 139 143 145 147 148 140 130 130 133 139 145
7 1 359 358 356 356 352 354 357 359 358 346 336 326 315 303 302 309 317 317 309 282 260 254 248 244 241 231 224 218 192 219 243 236 234 241 235 237 234 231 230 230 235 233 223 187 125 94 297 279 280 289 312 318 351 354 321 32 42 55 123 187 193 174 155 158 163 155 155 145 146 149 138 145 141 136 145 140 143 146 148 148 137 134 135 138 143 144
5 358 351 349 346 342 342 344 345 351 355 356 351 335 328 318 311 312 315 324 326 313 284 256 246 241 233 223 217 206 198 231 244 238 237 242 239 238 235 234 231 228 231 230 221 185 138 306 281 278 284 293 324 321 318 324 274 315 3 9 92 205 202 182 168 167 163 164 165 151 153 152 142 147 135 132 143 138 142 147 147 144 141 141 138 140 144 139
5 0 353 347 340 335 333 333 336 341 347 354 355 349 342 328 323 320 317 326 329 343 344 278 227 220 211 204 200 187 214 241 243 237 237 238 240 238 234 236 232 228 228 226 220 186 153 268 277 289 291 297 319 313 310 297 278 297 312 287 297 220 202 193 182 170 165 172 163 151 159 153 145 145 134 134 138 138 145 147 146 144 144 140 138 148 148 136
3 0 356 352 345 338 329 327 331 334 340 347 352 358 352 338 333 326 323 330 334 2 15 34 110 174 160 155 150 140 241 250 248 244 238 235 237 235 233 234 230 226 224 225 225 202 172 231 288 301 288 290 297 288 297 298 294 299 284 273 279 240 213 203 195 182 174 172 162 159 158 154 152 139 135 135 137 146 148 145 146 145 143 140 148 154 139 134
6 4 3 360 354 347 335 332 331 332 337 339 347 355 357 353 344 335 336 336 342 6 36 63 97 128 132 136 115 84 262 261 266 255 242 236 236 234 231 230 226 221 218 219 223 210 180 242 271 268 277 294 288 288 298 295 295 292 282 285 282 259 228 209 203 196 185 174 168 164 154 162 158 135 142 145 144 152 146 146 148 145 144 145 153 146 131 138
12 10 9 6 4 360 351 347 345 343 341 342 349 355 359 360 356 355 346 344 356 10 46 66 100 131 140 145 123 298 265 269 276 259 246 238 234 234 230 226 223 215 213 214 224 221 199 239 257 232 266 299 290 305 299 302 309 286 283 295 273 257 238 213 204 199 188 177 171 165 160 166 152 137 152 151 149 154 148 150 149 146 149 149 152 141 136 146
15 13 11 13 13 12 9 8 9 6 358 357 356 356 3 5 8 12 4 3 7 19 48 66 100 137 153 168 177 258 266 271 274 263 250 241 235 234 230 224 222 212 208 205 219 248 230 232 228 202 251 288 304 306 273 295 314 287 288 300 278 270 252 221 202 196 185 175 172 168 166 165 156 148 152 152 154 156 152 153 152 152 152 152 155 146 146 156
17 16 17 20 24 28 29 29 30 29 22 14 7 9 10 10 15 18 22 25 24 40 51 66 87 117 135 163 247 287 282 278 274 265 251 244 238 234 232 226 224 217 213 206 202 229 242 239 229 211 237 269 290 299 284 282 286 287 315 313 288 274 249 248 211 196 184 172 173 172 164 168 176 156 149 158 161 158 158 157 156 157 154 155 157 151 156 161
21 24 27 31 38 43 45 45 44 41 35 28 21 20 19 20 25 28 38 45 48 57 57 63 67 77 122 113 333 338 296 291 266 256 251 245 241 234 237 230 225 221 219 221 218 221 233 238 236 228 237 264 279 292 300 283 277 300 323 314 301 286 262 277 218 193 186 173 176 180 167 169 176 154 155 165 164 162 162 161 161 161 158 159 158 158 163 155
27 31 34 40 49 54 57 56 53 49 44 39 33 31 30 30 33 38 49 59 63 65 63 64 62 58 74 314 331 341 294 302 276 251 241 237 237 289 266 238 226 226 217 226 231 234 243 247 242 238 252 280 283 283 287 283 290 305 307 302 311 306 289 269 207 190 185 177 180 185 172 170 168 157 163 167 167 167 163 164 167 164 163 163 161 162 161 151
31 33 37 46 56 63 66 64 60 57 52 46 43 41 38 37 43 53 61 66 67 68 68 64 63 68 76 282 318 339 322 11 345 259 227 220 144 342 269 240 220 228 220 227 233 239 249 254 247 244 259 270 268 270 275 287 299 310 307 305 313 309 290 225 207 196 187 179 181 186 179 179 179 169 165 166 171 170 167 168 170 168 169 168 161 162 164 160
32 35 40 50 64 70 70 68 65 61 57 54 55 56 53 45 42 61 72 71 65 60 61 55 43 50 70 282 326 2 25 7 332 271 224 221 184 212 246 232 216 220 217 229 235 243 251 255 254 249 258 261 261 268 271 281 297 320 321 311 313 318 301 219 215 202 188 182 185 189 190 188 188 177 164 166 175 174 173 172 172 173 172 173 164 164 174 168
30 39 46 57 68 72 72 70 67 64 61 59 60 61 60 52 42 51 78 75 62 46 35 33 29 18 36 35 333 7 267 283 312 334 210 228 215 215 207 176 245 216 209 231 238 247 251 253 256 255 261 257 253 257 261 277 304 314 317 317 309 314 308 245 233 210 190 183 187 190 193 191 190 183 168 170 178 177 179 176 174 175 174 177 169 166 177 170
28 37 51 66 69 70 71 69 68 67 63 59 62 59 51 46 35 24 47 63 44 29 8 5 27 3 341 58 258 229 255 307 330 45 188 196 211 214 189 179 255 212 203 240 250 248 243 241 243 246 252 253 249 252 271 305 304 301 315 329 313 308 311 268 249 219 194 187 189 190 191 188 185 185 175 177 183 176 178 181 179 177 176 177 172 171 175 173
26 31 50 69 67 66 64 62 63 59 57 54 54 56 37 18 18 4 357 33 16 352 350 313 332 351 326 117 315 259 321 6 20 7 321 156 146 187 214 223 241 234 218 233 242 238 231 231 239 243 242 252 258 253 279 305 286 299 319 331 331 336 329 278 248 211 195 191 190 187 192 193 189 190 180 180 188 181 178 182 181 180 178 175 177 177 173 176
22 25 43 60 63 63 56 55 54 47 50 45 40 70 42 3 20 342 326 26 4 317 203 267 220 176 200 207 285 281 290 351 352 308 300 91 111 160 223 228 228 240 237 234 235 228 229 236 242 245 245 253 257 241 252 296 292 312 315 320 343 355 344 286 241 206 195 191 189 188 198 197 194 197 190 184 189 187 184 183 183 183 179 177 181 183 175 175
13 19 29 51 58 54 48 50 50 47 45 34 48 66 45 12 154 150 128 102 334 319 93 331 122 179 289 315 293 183 167 264 281 268 308 42 131 185 231 267 243 240 240 233 233 222 225 244 244 243 252 255 248 243 260 287 299 320 317 324 347 360 14 344 244 206 196 195 197 198 200 193 191 198 198 191 191 193 188 180 185 188 179 180 184 185 182 177
352 359 348 36 49 29 35 41 47 53 38 24 44 42 22 75 123 137 130 141 264 336 36 333 25 242 317 357 4 96 121 253 241 239 291 123 153 194 238 262 253 244 239 227 233 231 229 240 237 239 249 245 250 258 252 260 264 287 309 310 316 341 17 345 274 217 201 203 208 199 190 187 192 197 199 196 195 200 192 176 183 191 181 181 185 188 187 179
327 302 277 285 276 342 8 35 50 70 63 40 36 18 332 147 101 142 137 162 217 297 263 262 91 197 295 302 223 66 68 280 224 225 261 122 158 232 270 264 251 247 248 233 234 244 250 259 259 254 245 228 255 263 250 250 236 244 292 282 314 327 6 328 289 235 212 208 210 201 189 192 197 196 197 199 200 203 196 179 182 191 185 180 186 195 192 182
308 278 258 264 261 290 316 341 21 91 69 33 5 347 341 77 37 174 354 276 205 219 254 258 89 185 328 58 142 39 242 247 64 211 244 175 190 247 274 262 246 245 256 252 246 249 258 270 274 269 249 232 256 263 258 259 239 225 229 227 343 357 339 329 306 204 208 210 212 210 203 207 208 205 201 199 204 206 196 184 184 190 188 180 183 197 194 186
298 276 256 255 259 264 281 296 272 71 44 6 287 302 345 17 335 333 342 289 240 178 157 139 49 213 347 41 107 3 227 187 160 216 240 232 206 245 265 245 243 250 263 274 268 249 246 253 259 268 257 240 252 261 260 265 265 242 200 198 262 323 331 327 297 149 185 220 223 214 213 219 209 208 207 199 203 207 195 184 186 193 195 183 179 194 197 192
292 279 261 249 253 258 266 288 237 96 47 305 254 271 298 314 308 318 328 280 222 136 159 164 17 237 281 269 205 285 263 173 205 259 272 243 182 217 267 251 251 258 252 270 277 248 239 248 255 264 265 254 253 259 251 247 265 263 182 180 216 261 308 312 276 198 227 270 267 217 220 238 222 211 212 203 199 205 201 193 191 195 200 189 181 191 196 195
293 278 267 249 249 252 247 256 252 225 143 231 245 279 276 286 296 304 307 287 101 101 185 188 264 288 257 226 222 277 269 189 238 268 252 265 172 191 260 286 280 277 244 253 263 234 231 247 246 247 252 252 249 253 256 249 256 254 130 165 202 253 273 269 291 284 267 282 273 224 219 239 244 217 214 209 202 206 210 209 203 198 200 195 188 191 195 198
299 281 271 254 246 243 242 242 244 261 235 178 225 279 286 292 303 305 279 278 1 129 195 211 260 301 183 215 223 336 231 200 278 288 226 268 281 203 235 262 274 279 260 260 262 261 277 245 242 250 245 248 252 249 254 255 243 157 97 61 247 241 235 249 296 294 284 267 263 249 220 229 245 205 206 210 208 211 214 216 213 205 201 198 193 191 196 201
302 288 272 259 251 239 239 241 230 235 223 188 229 244 281 293 300 289 262 256 210 153 165 256 246 218 202 227 224 218 238 221 265 299 217 257 283 216 231 238 250 268 259 265 262 257 263 247 243 255 246 249 257 250 245 248 239 200 224 289 269 235 229 251 283 290 282 245 262 262 229 232 252 192 198 206 211 217 219 219 219 211 206 203 198 192 196 202
300 293 277 263 255 240 234 236 230 223 210 198 197 215 278 294 282 272 274 305 251 177 100 246 204 219 243 251 236 222 239 226 212 239 235 227 223 230 245 233 243 262 249 251 248 241 244 240 240 248 246 247 247 248 252 254 263 253 248 260 259 241 234 241 240 237 250 248 257 253 231 232 247 218 211 212 212 218 222 221 220 215 208 204 201 194 194 203
298 293 283 267 255 244 238 235 227 218 209 205 205 227 286 286 263 254 267 290 251 166 171 207 176 255 244 250 241 220 232 217 198 233 252 236 228 234 237 234 254 268 261 258 244 231 231 228 230 238 238 236 236 242 246 236 239 254 251 242 247 245 231 237 228 207 254 304 265 228 219 226 251 266 269 244 228 224 226 225 223 221 214 208 208 199 191 201
296 292 285 270 256 248 240 231 224 216 209 207 213 242 275 275 270 261 269 277 236 76 301 256 251 287 258 239 219 196 231 218 226 256 247 245 252 240 223 229 284 277 282 297 283 255 235 211 205 230 236 221 222 233 228 217 221 232 239 234 236 248 242 251 239 171 256 265 170 207 205 209 255 262 263 239 226 221 221 221 222 223 217 214 216 206 193 196
293 291 284 270 255 248 239 229 222 214 211 209 212 246 263 263 268 277 285 270 259 323 281 253 252 250 263 249 202 184 229 240 273 268 237 222 246 248 218 214 279 271 273 296 303 319 317 249 194 211 235 202 207 232 233 238 241 232 230 228 235 251 256 266 261 269 320 227 160 156 215 215 272 264 208 182 186 197 211 214 217 219 218 218 217 210 200 195
289 289 283 272 255 243 235 229 220 214 215 208 220 252 255 256 261 272 299 150 91 319 239 207 253 244 228 222 209 210 230 248 261 244 233 219 242 296 201 182 206 264 277 303 325 330 305 291 152 155 68 136 202 256 244 253 266 248 223 223 237 250 254 254 256 289 324 278 160 122 222 294 290 245 228 221 201 209 222 221 220 216 214 217 215 212 207 197
288 287 281 272 256 239 232 225 215 215 216 207 235 251 244 258 279 287 326 54 343 313 264 237 246 246 237 218 207 188 205 241 267 241 232 228 257 331 94 137 121 146 316 325 330 318 286 299 86 160 255 232 266 283 247 240 257 270 240 232 235 243 255 256 250 268 288 276 27 93 230 332 187 205 224 231 222 231 231 223 219 212 204 210 211 210 209 200
291 287 284 277 260 243 230 222 215 215 215 214 241 252 250 270 293 290 281 284 281 287 278 264 236 247 268 234 188 167 193 227 232 228 221 222 253 234 212 300 38 266 308 317 311 321 310 293 309 296 267 255 267 280 258 239 239 254 260 247 238 241 255 264 246 248 260 254 56 39 274 133 150 229 259 221 226 254 249 227 218 212 206 210 208 207 210 202
293 289 293 278 256 246 226 218 215 213 214 226 245 254 259 270 284 278 271 280 269 257 261 262 256 271 275 254 172 166 185 211 199 221 227 206 198 191 249 273 179 281 303 270 275 305 318 283 285 310 306 297 286 261 256 249 236 243 251 241 243 250 251 253 239 247 262 245 81 37 22 161 189 218 243 260 272 267 264 235 217 210 205 212 210 206 212 207
292 300 319 277 254 249 223 217 213 211 217 231 245 251 254 262 269 261 260 273 253 246 251 258 282 279 252 279 76 178 210 255 217 257 272 205 184 174 290 277 188 62 355 239 274 307 322 298 293 291 315 319 308 259 240 245 235 241 249 223 227 237 241 244 243 251 260 227 106 27 23 250 240 230 241 273 303 238 228 179 191 201 199 208 211 203 205 209
286 323 330 257 257 266 237 223 211 211 222 231 240 245 248 261 265 245 246 264 245 240 253 257 273 267 243 276 302 241 259 266 230 265 259 192 216 237 278 282 227 283 324 246 264 304 277 268 280 285 308 318 311 288 269 282 255 239 238 228 226 222 228 245 248 248 245 136 117 256 346 302 300 300 270 278 310 219 217 164 173 191 194 202 209 208 209 209
286 76 209 239 261 284 272 235 215 215 227 235 242 249 255 265 265 245 239 242 241 248 259 259 272 290 276 279 265 240 268 262 222 268 265 203 230 248 231 250 243 287 310 275 275 310 274 267 294 295 301 298 291 285 283 292 296 275 257 258 261 248 237 244 249 243 238 171 159 175 183 288 284 291 276 279 300 260 227 187 177 180 184 196 203 215 222 216
120 59 247 245 264 279 271 240 223 222 230 235 242 248 254 256 247 246 240 223 234 247 247 256 275 284 273 272 277 266 273 257 225 250 267 238 250 255 160 197 244 295 296 275 295 322 301 300 307 292 282 277 276 284 285 281 288 282 258 252 268 275 261 253 257 249 243 230 178 159 150 230 249 259 263 286 357 123 183 193 183 179 185 200 204 218 232 223
168 199 266 260 266 268 257 242 229 227 235 240 244 247 251 254 245 246 246 235 235 237 235 246 259 256 248 251 271 272 254 253 240 233 247 248 221 121 132 205 266 280 272 268 290 331 321 295 297 293 289 281 276 277 268 261 264 255 244 247 263 285 282 263 268 276 268 265 182 147 157 187 218 237 256 318 4 153 192 201 189 185 190 200 205 216 230 216
209 216 232 256 269 261 236 235 232 230 236 239 244 249 250 249 243 240 242 238 231 230 236 242 244 247 247 245 250 246 248 266 257 244 248 256 239 163 204 288 289 270 276 277 293 331 339 306 298 300 296 291 288 283 271 267 264 250 252 274 266 281 298 275 266 274 276 278 260 223 200 174 217 232 227 304 318 155 196 215 200 190 189 189 193 198 195 187
243 244 227 239 264 268 238 231 235 238 240 240 244 249 249 246 239 235 241 241 232 232 237 239 244 246 239 233 239 244 260 283 274 250 236 242 270 272 257 261 260 250 279 290 297 318 317 303 303 304 306 306 297 294 305 304 289 273 298 315 280 271 282 278 269 266 260 250 239 235 201 180 218 234 220 245 272 94 158 214 201 189 186 181 184 189 182 177
232 271 285 252 251 258 248 236 237 244 252 260 256 248 246 244 237 234 237 240 241 241 239 242 248 245 232 236 246 245 252 264 259 242 233 242 262 261 231 237 249 251 273 289 298 306 294 286 285 282 289 298 289 276 288 295 285 275 284 296 289 274 268 272 278 276 264 247 233 222 191 186 205 222 232 247 256 226 185 194 184 182 178 171 175 184 184 182
210 274 319 291 250 236 243 243 239 245 254 261 262 263 258 243 236 240 233 227 240 244 239 241 239 235 234 234 242 246 242 245 248 247 256 268 281 281 260 261 261 256 268 286 291 279 272 272 272 276 280 282 286 287 284 279 273 272 275 279 284 285 271 263 270 281 285 268 240 210 195 196 199 210 233 250 252 240 219 173 151 156 163 156 156 170 179 182
248 291 304 295 267 241 245 246 241 251 253 248 249 263 272 249 237 243 225 209 232 243 236 236 233 237 246 239 242 247 234 234 244 248 259 270 275 275 268 259 261 262 264 281 276 250 250 265 284 304 295 284 283 285 283 280 275 272 277 280 280 286 282 268 262 264 277 284 263 207 197 203 196 195 220 246 247 232 230 187 145 151 164 156 156 166 170 172
263 268 245 250 249 235 244 256 266 272 260 251 252 255 260 253 242 238 221 209 228 237 230 234 232 230 238 249 265 270 253 249 255 250 253 263 262 262 263 263 272 262 249 269 275 248 238 257 296 305 297 291 283 284 288 286 281 277 273 276 281 281 284 282 266 247 252 285 276 187 180 189 194 198 215 243 249 234 235 209 142 147 153 149 156 164 162 164
264 256 241 242 237 229 241 260 275 277 256 253 263 256 250 252 246 241 234 227 231 230 224 234 239 230 228 235 242 239 233 247 270 259 239 249 259 256 257 267 275 259 245 264 279 250 245 274 298 295 300 296 276 282 293 281 273 277 267 257 260 264 264 277 297 274 258 271 250 201 194 191 198 211 227 246 255 251 244 226 153 145 149 151 158 161 159 164
263 259 255 256 247 239 247 255 264 271 259 250 255 252 249 251 246 248 249 239 235 234 229 231 239 243 248 244 231 219 220 237 255 262 242 240 251 249 242 253 261 254 250 255 265 264 263 275 273 253 301 304 284 287 297 280 268 273 263 250 252 266 270 265 288 325 284 253 224 228 236 232 224 231 241 247 255 262 262 248 204 172 166 162 162 164 166 172
262 263 261 263 259 250 250 257 259 261 258 249 247 248 249 249 245 244 248 246 242 240 236 229 226 232 250 253 242 240 252 243 241 252 248 241 249 257 252 255 262 259 254 259 272 278 265 263 267 276 296 298 290 302 304 285 266 261 253 250 251 264 277 262 246 316 289 250 231 240 250 251 242 238 241 243 249 262 270 260 229 203 192 173 163 165 171 178
Height
3156 3156 3155 3155 3154 3153 3153 3152 3152 3152 3151 3151 3151 3151 3151 3151 3151 3152 3152 3152 3153 3153 3154 3155 3156 3157 3157 3158 3159 3159 3160 3160 3160 3160 3161 3161 3162 3163 3163 3164 3164 3165 3165 3166 3166 3166 3166 3166 3166 3167 3168 3171 3170 3169 3170 3171 3171 3171 3171 3171 3170 3170 3169 3169 3170 3171 3171 3170 3170 3171 3171 3172 3172 3172 3173 3174 3176 3176 3177 3178 3177 3177 3177 3177 3177 3177 3177 3178
3157 3156 3156 3155 3154 3154 3153 3153 3152 3152 3151 3151 3151 3151 3151 3151 3151 3151 3151 3152 3152 3152 3153 3154 3155 3155 3156 3157 3158 3159 3159 3160 3160 3160 3160 3161 3161 3162 3163 3163 3164 3165 3165 3166 3166 3166 3166 3168 3170 3170 3171 3171 3170 3170 3171 3171 3171 3172 3171 3171 3170 3170 3170 3170 3170 3171 3171 3171 3171 3171 3172 3172 3173 3173 3173 3175 3176 3177 3178 3178 3177 3176 3176 3177 3177 3178 3178 3178
3157 3157 3156 3155 3155 3154 3154 3153 3152 3152 3151 3151 3151 3151 3151 3151 3151 3151 3151 3151 3151 3152 3152 3152 3153 3154 3155 3156 3157 3158 3159 3159 3159 3159 3160 3160 3161 3162 3162 3163 3164 3164 3165 3166 3166 3166 3166 3169 3172 3172 3172 3173 3172 3171 3171 3172 3172 3172 3171 3170 3170 3170 3170 3171 3171 3172 3173 3172 3172 3172 3173 3173 3173 3174 3175 3176 3177 3178 3179 3178 3177 3177 3177 3177 3178 3178 3179 3179
3158 3157 3157 3156 3155 3155 3154 3153 3153 3152 3152 3151 3151 3151 3151 3150 3151 3151 3151 3151 3151 3151 3151 3152 3152 3153 3154 3155 3156 3157 3158 3159 3158 3159 3160 3160 3160 3161 3162 3163 3163 3164 3165 3166 3166 3166 3166 3168 3171 3172 3173 3173 3173 3171 3170 3171 3172 3172 3172 3171 3170 3170 3171 3172 3172 3173 3174 3173 3173 3173 3173 3173 3174 3175 3176 3176 3178 3178 3179 3179 3178 3177 3177 3178 3178 3179 3179 3180
3158 3158 3157 3156 3156 3155 3154 3154 3153 3153 3152 3152 3151 3151 3151 3150 3150 3150 3151 3150 3150 3151 3151 3151 3151 3152 3153 3154 3155 3156 3158 3158 3156 3157 3159 3159 3160 3160 3161 3162 3163 3164 3164 3165 3166 3166 3167 3168 3170 3172 3173 3172 3172 3171 3170 3171 3171 3172 3172 3171 3171 3171 3171 3172 3173 3174 3174 3174 3174 3174 3174 3174 3174 3175 3176 3177 3178 3178 3179 3180 3179 3178 3178 3178 3179 3180 3180 3181
3159 3158 3157 3157 3156 3155 3155 3154 3153 3153 3153 3152 3152 3151 3151 3151 3150 3150 3151 3150 3150 3150 3150 3151 3151 3152 3152 3153 3154 3155 3157 3156 3153 3156 3159 3159 3160 3160 3161 3161 3162 3163 3164 3165 3166 3166 3167 3168 3170 3172 3174 3173 3172 3172 3172 3171 3170 3171 3171 3171 3170 3170 3171 3172 3172 3173 3173 3174 3174 3174 3174 3174 3174 3175 3176 3177 3178 3178 3180 3180 3180 3179 3179 3180 3180 3181 3181 3182
3159 3158 3158 3157 3156 3155 3155 3154 3154 3153 3153 3152 3152 3152 3151 3151 3151 3150 3151 3151 3151 3150 3150 3151 3151 3152 3152 3153 3153 3154 3155 3153 3152 3157 3158 3158 3159 3160 3160 3161 3162 3163 3164 3164 3165 3166 3167 3169 3171 3173 3174 3173 3172 3173 3173 3171 3169 3171 3171 3170 3170 3170 3171 3172 3172 3172 3172 3173 3173 3173 3174 3174 3174 3174 3175 3177 3178 3178 3180 3180 3180 3180 3181 3181 3181 3182 3182 3182
3159 3158 3158 3157 3156 3156 3155 3154 3154 3153 3153 3153 3152 3152 3152 3151 3151 3151 3151 3151 3151 3151 3151 3151 3151 3151 3152 3153 3153 3155 3154 3151 3153 3157 3157 3158 3159 3159 3160 3160 3161 3162 3163 3164 3165 3166 3168 3170 3172 3174 3174 3173 3173 3173 3173 3171 3169 3171 3171 3170 3170 3170 3170 3171 3171 3170 3171 3172 3172 3173 3174 3175 3175 3175 3175 3177 3178 3179 3180 3180 3181 3181 3182 3182 3183 3183 3183 3183
3159 3158 3158 3157 3156 3156 3155 3155 3154 3154 3153 3153 3153 3152 3152 3152 3151 3151 3151 3151 3151 3151 3151 3151 3151 3151 3152 3153 3153 3155 3153 3151 3154 3156 3156 3158 3158 3159 3160 3160 3161 3161 3163 3164 3165 3166 3167 3170 3172 3174 3173 3173 3173 3173 3172 3170 3169 3169 3169 3169 3170 3170 3169 3170 3171 3170 3170 3171 3172 3173 3174 3175 3175 3176 3176 3177 3179 3180 3180 3181 3181 3182 3182 3183 3184 3183 3183 3184
3159 3158 3157 3157 3156 3156 3155 3155 3154 3154 3153 3153 3153 3153 3152 3152 3152 3151 3151 3151 3151 3151 3151 3151 3151 3152 3152 3153 3154 3155 3153 3152 3154 3155 3155 3156 3157 3158 3159 3159 3160 3161 3162 3163 3164 3166 3167 3170 3171 3171 3172 3172 3173 3173 3171 3169 3169 3168 3168 3169 3169 3168 3168 3169 3170 3170 3169 3169 3171 3173 3174 3175 3175 3176 3177 3178 3179 3180 3180 3182 3182 3182 3183 3184 3184 3184 3185 3186
3160 3159 3158 3157 3156 3156 3155 3155 3155 3154 3154 3154 3153 3153 3153 3152 3152 3152 3152 3151 3151 3151 3152 3152 3152 3152 3153 3153 3154 3154 3153 3153 3153 3154 3154 3155 3156 3157 3158 3159 3160 3160 3162 3162 3164 3165 3166 3168 3169 3169 3171 3171 3172 3172 3171 3168 3168 3167 3166 3167 3167 3166 3166 3167 3168 3169 3168 3169 3171 3173 3174 3174 3175 3176 3177 3178 3180 3181 3181 3182 3183 3183 3184 3184 3185 3185 3186 3187
3160 3159 3158 3157 3157 3156 3156 3155 3155 3155 3154 3154 3154 3153 3153 3153 3153 3152 3152 3152 3152 3152 3152 3152 3153 3153 3153 3153 3153 3153 3153 3153 3153 3153 3154 3154 3155 3156 3157 3158 3159 3160 3161 3162 3164 3165 3166 3166 3167 3168 3169 3170 3171 3171 3170 3169 3168 3167 3166 3166 3166 3165 3165 3166 3167 3168 3167 3168 3171 3173 3173 3174 3175 3176 3177 3179 3180 3181 3182 3182 3183 3184 3184 3185 3185 3185 3186 3187
3160 3159 3159 3158 3157 3157 3156 3156 3155 3155 3155 3155 3154 3154 3154 3153 3153 3153 3153 3153 3152 3152 3153 3153 3153 3154 3154 3154 3154 3153 3153 3152 3152 3153 3153 3154 3155 3156 3157 3157 3158 3159 3160 3160 3162 3163 3164 3164 3165 3166 3167 3169 3170 3170 3170 3169 3167 3167 3166 3166 3166 3166 3165 3165 3165 3167 3167 3169 3171 3172 3173 3174 3175 3175 3177 3179 3180 3181 3182 3183 3183 3184 3184 3185 3185 3186 3186 3186
3161 3160 3159 3159 3158 3158 3157 3157 3156 3156 3156 3156 3155 3155 3155 3154 3154 3154 3154 3154 3153 3153 3153 3153 3154 3154 3154 3154 3154 3154 3153 3152 3152 3152 3153 3154 3154 3155 3156 3157 3158 3159 3160 3160 3160 3160 3161 3162 3163 3165 3166 3167 3168 3169 3169 3169 3166 3167 3167 3166 3166 3166 3166 3165 3164 3165 3168 3169 3170 3172 3173 3174 3175 3176 3177 3179 3180 3181 3182 3183 3184 3184 3185 3185 3186 3186 3186 3186
3162 3161 3160 3160 3159 3159 3158 3158 3157 3157 3157 3157 3156 3156 3156 3155 3155 3155 3155 3155 3154 3154 3154 3154 3155 3154 3154 3154 3154 3153 3153 3152 3152 3152 3153 3153 3154 3156 3156 3156 3157 3158 3159 3160 3160 3160 3160 3161 3163 3164 3166 3167 3168 3168 3169 3168 3166 3166 3167 3166 3166 3165 3166 3165 3164 3165 3166 3167 3169 3171 3172 3173 3175 3176 3177 3179 3180 3181 3182 3184 3184 3185 3185 3185 3186 3186 3186 3187
3163 3162 3161 3161 3160 3160 3159 3159 3159 3159 3158 3158 3157 3157 3157 3156 3156 3156 3156 3156 3156 3156 3156 3156 3156 3156 3156 3156 3154 3153 3152 3152 3152 3152 3153 3153 3154 3157 3156 3156 3157 3158 3159 3159 3160 3160 3160 3162 3163 3164 3165 3166 3168 3168 3168 3167 3166 3165 3166 3166 3165 3164 3165 3165 3164 3164 3165 3166 3168 3169 3170 3172 3174 3175 3177 3179 3180 3181 3182 3184 3185 3185 3185 3185 3186 3187 3187 3187
3164 3163 3163 3162 3162 3161 3161 3160 3160 3160 3160 3159 3159 3158 3158 3158 3158 3158 3157 3157 3157 3157 3157 3157 3157 3156 3156 3156 3155 3154 3153 3153 3153 3153 3153 3153 3154 3155 3155 3156 3157 3157 3158 3159 3159 3160 3161 3162 3163 3164 3165 3165 3166 3167 3166 3166 3166 3166 3165 3165 3164 3164 3165 3165 3164 3164 3164 3166 3167 3168 3170 3172 3173 3174 3176 3178 3180 3181 3182 3183 3184 3185 3185 3185 3186 3187 3187 3187
3165 3165 3164 3164 3163 3163 3162 3162 3162 3161 3161 3160 3160 3160 3159 3159 3159 3159 3159 3158 3158 3158 3158 3158 3157 3157 3157 3157 3157 3156 3155 3154 3153 3153 3153 3153 3153 3154 3154 3156 3157 3157 3158 3159 3159 3160 3161 3162 3163 3164 3165 3165 3165 3166 3164 3164 3166 3166 3164 3164 3163 3162 3163 3163 3163 3163 3164 3165 3167 3169 3170 3172 3173 3174 3175 3177 3179 3181 3182 3183 3184 3185 3185 3185 3186 3187 3187 3187
3166 3166 3165 3165 3165 3164 3164 3163 3163 3162 3162 3162 3161 3161 3160 3160 3160 3160 3160 3159 3159 3158 3160 3160 3158 3159 3159 3158 3158 3156 3156 3154 3153 3153 3153 3153 3153 3154 3155 3156 3157 3158 3159 3160 3160 3161 3162 3163 3164 3164 3164 3164 3164 3164 3163 3164 3165 3166 3165 3164 3163 3162 3162 3163 3162 3162 3164 3165 3166 3168 3170 3171 3172 3174 3175 3177 3178 3180 3181 3183 3184 3185 3185 3186 3186 3187 3187 3187
3167 3167 3167 3166 3166 3165 3165 3164 3164 3163 3163 3162 3162 3162 3161 3161 3161 3162 3161 3160 3159 3159 3161 3161 3160 3161 3160 3159 3158 3156 3155 3154 3154 3154 3154 3153 3154 3155 3156 3157 3158 3159 3159 3161 3161 3161 3162 3163 3163 3163 3163 3162 3162 3163 3163 3164 3165 3165 3166 3165 3164 3163 3162 3162 3163 3163 3164 3165 3167 3169 3171 3171 3172 3173 3174 3176 3178 3179 3181 3183 3184 3184 3185 3186 3187 3187 3187 3188
3168 3168 3168 3167 3167 3166 3166 3165 3165 3165 3164 3163 3163 3162 3162 3163 3163 3163 3161 3160 3160 3160 3161 3160 3160 3160 3160 3159 3158 3156 3156 3155 3156 3156 3155 3154 3154 3156 3157 3158 3159 3160 3160 3161 3162 3161 3162 3162 3161 3161 3161 3161 3161 3161 3163 3164 3164 3166 3167 3165 3165 3164 3162 3163 3164 3164 3164 3165 3166 3169 3170 3170 3171 3172 3173 3175 3176 3178 3179 3182 3183 3184 3185 3186 3186 3187 3187 3188
3169 3168 3168 3168 3168 3167 3167 3166 3166 3166 3165 3165 3164 3162 3163 3163 3163 3162 3161 3161 3162 3161 3160 3160 3159 3160 3159 3158 3158 3156 3157 3158 3158 3157 3156 3155 3155 3157 3159 3159 3160 3160 3160 3161 3161 3161 3161 3160 3160 3160 3160 3161 3161 3161 3163 3163 3164 3166 3166 3165 3166 3165 3164 3164 3165 3165 3165 3165 3166 3167 3169 3170 3171 3172 3174 3175 3175 3176 3177 3179 3183 3184 3184 3186 3186 3186 3187 3187
3169 3169 3169 3168 3168 3168 3168 3167 3167 3166 3166 3166 3165 3163 3164 3164 3163 3163 3161 3161 3162 3161 3161 3160 3161 3161 3160 3158 3158 3156 3157 3160 3159 3158 3157 3156 3157 3158 3159 3160 3160 3160 3160 3160 3160 3160 3158 3157 3157 3159 3159 3160 3161 3161 3163 3163 3163 3165 3165 3165 3166 3164 3164 3164 3165 3165 3165 3166 3166 3168 3171 3172 3173 3174 3174 3174 3174 3175 3176 3177 3180 3183 3184 3185 3186 3186 3186 3187
3169 3169 3169 3169 3169 3168 3168 3168 3167 3167 3167 3166 3165 3165 3166 3165 3163 3163 3162 3161 3162 3162 3162 3161 3161 3162 3161 3159 3158 3156 3158 3160 3159 3158 3157 3156 3158 3160 3159 3159 3160 3159 3159 3159 3159 3158 3155 3155 3157 3158 3158 3159 3161 3161 3162 3162 3161 3162 3164 3165 3165 3164 3164 3163 3164 3164 3164 3165 3166 3168 3171 3172 3174 3174 3173 3173 3173 3175 3177 3176 3177 3181 3183 3185 3186 3186 3186 3187
3170 3169 3169 3169 3169 3168 3168 3168 3168 3167 3167 3167 3167 3166 3166 3165 3164 3164 3163 3162 3162 3162 3161 3160 3160 3161 3160 3159 3158 3158 3159 3160 3159 3158 3157 3157 3158 3159 3159 3159 3159 3158 3158 3158 3158 3158 3155 3155 3156 3157 3157 3159 3160 3161 3161 3161 3159 3159 3161 3162 3164 3164 3164 3163 3163 3163 3163 3164 3165 3167 3169 3170 3171 3172 3172 3173 3173 3174 3176 3175 3176 3180 3182 3183 3185 3185 3185 3186
3169 3169 3169 3169 3168 3168 3168 3168 3168 3167 3168 3169 3169 3168 3166 3165 3165 3164 3164 3162 3161 3161 3159 3160 3160 3159 3159 3159 3159 3159 3159 3159 3159 3158 3158 3157 3157 3157 3157 3158 3158 3157 3158 3158 3157 3156 3155 3156 3156 3156 3157 3158 3160 3160 3160 3160 3159 3157 3157 3159 3163 3164 3163 3162 3162 3163 3164 3164 3164 3165 3167 3168 3168 3169 3170 3171 3172 3174 3174 3174 3175 3179 3180 3181 3184 3184 3185 3186
3168 3168 3168 3168 3168 3168 3168 3168 3168 3167 3169 3169 3168 3167 3166 3166 3165 3164 3164 3161 3158 3159 3159 3160 3160 3159 3160 3159 3159 3160 3159 3159 3159 3158 3158 3157 3156 3157 3157 3158 3158 3157 3157 3158 3156 3154 3154 3155 3156 3156 3157 3158 3159 3159 3159 3160 3158 3156 3155 3158 3162 3163 3163 3163 3164 3164 3164 3164 3165 3165 3166 3167 3166 3167 3168 3169 3170 3172 3172 3173 3174 3177 3179 3180 3182 3184 3184 3185
3168 3167 3167 3167 3167 3168 3168 3168 3168 3167 3167 3168 3167 3167 3166 3166 3165 3165 3165 3161 3157 3158 3160 3160 3159 3159 3160 3160 3159 3159 3159 3159 3158 3158 3158 3157 3156 3157 3158 3158 3158 3156 3157 3157 3155 3153 3154 3155 3156 3157 3158 3158 3158 3158 3157 3158 3157 3155 3155 3157 3161 3163 3163 3163 3165 3165 3165 3165 3165 3165 3166 3166 3164 3164 3165 3167 3168 3169 3170 3172 3173 3175 3178 3179 3181 3183 3184 3184
3167 3166 3166 3166 3166 3167 3167 3167 3167 3167 3167 3167 3167 3167 3166 3165 3165 3165 3166 3162 3157 3158 3159 3159 3158 3158 3159 3159 3159 3159 3159 3159 3159 3158 3158 3158 3156 3156 3157 3157 3157 3157 3156 3156 3154 3153 3153 3154 3154 3155 3156 3156 3156 3157 3157 3158 3156 3154 3155 3158 3161 3163 3163 3163 3164 3164 3165 3166 3165 3164 3165 3164 3161 3161 3162 3163 3165 3166 3168 3171 3172 3174 3176 3178 3180 3182 3183 3184
3166 3165 3165 3165 3165 3166 3166 3167 3167 3167 3167 3167 3167 3166 3166 3165 3165 3165 3163 3160 3157 3157 3158 3158 3158 3159 3159 3159 3158 3159 3159 3158 3159 3159 3158 3158 3157 3156 3156 3155 3156 3156 3156 3155 3153 3152 3152 3152 3153 3153 3154 3155 3155 3155 3156 3156 3155 3153 3156 3159 3160 3162 3163 3164 3164 3164 3164 3164 3162 3162 3164 3163 3160 3159 3160 3161 3163 3165 3167 3169 3171 3172 3174 3176 3178 3181 3183 3183
3164 3164 3164 3164 3164 3165 3165 3166 3166 3166 3167 3167 3167 3166 3166 3165 3166 3165 3160 3157 3156 3156 3157 3158 3158 3158 3158 3158 3157 3157 3158 3158 3158 3158 3157 3157 3157 3156 3156 3155 3154 3154 3154 3152 3151 3150 3150 3151 3151 3152 3152 3153 3154 3154 3154 3155 3154 3154 3157 3159 3159 3160 3162 3163 3163 3164 3164 3162 3161 3161 3163 3163 3161 3160 3160 3161 3163 3165 3167 3168 3168 3169 3172 3174 3176 3179 3182 3182
3163 3163 3163 3163 3163 3163 3164 3164 3165 3166 3166 3167 3167 3166 3166 3166 3165 3162 3159 3156 3155 3155 3156 3157 3157 3157 3158 3157 3156 3156 3157 3157 3157 3157 3157 3156 3156 3155 3155 3155 3154 3153 3151 3148 3147 3147 3147 3147 3149 3150 3150 3151 3152 3153 3153 3154 3155 3156 3157 3158 3158 3158 3159 3161 3162 3162 3163 3163 3161 3160 3161 3162 3161 3160 3161 3162 3163 3163 3165 3167 3166 3167 3169 3172 3173 3176 3180 3182
3162 3161 3161 3161 3161 3162 3163 3164 3165 3165 3166 3166 3166 3166 3167 3166 3162 3158 3157 3156 3155 3155 3156 3157 3157 3157 3157 3157 3156 3156 3157 3156 3155 3155 3156 3156 3155 3154 3153 3154 3154 3152 3150 3147 3146 3144 3143 3145 3148 3149 3149 3149 3151 3152 3152 3153 3154 3155 3156 3156 3156 3155 3156 3158 3159 3160 3163 3163 3162 3160 3161 3161 3160 3160 3160 3160 3161 3162 3163 3165 3165 3164 3167 3170 3172 3174 3177 3180
3160 3160 3160 3159 3160 3160 3161 3163 3164 3165 3165 3166 3166 3166 3166 3165 3160 3156 3156 3155 3155 3156 3156 3157 3157 3157 3157 3156 3155 3156 3156 3155 3155 3155 3155 3155 3154 3151 3150 3152 3153 3152 3151 3149 3146 3144 3144 3144 3145 3147 3148 3147 3150 3151 3151 3151 3151 3151 3152 3154 3154 3153 3153 3155 3156 3158 3160 3160 3160 3160 3160 3160 3160 3161 3160 3159 3160 3161 3161 3163 3162 3161 3164 3168 3171 3173 3175 3177
3159 3158 3158 3158 3158 3159 3160 3161 3162 3164 3164 3165 3165 3165 3164 3161 3157 3155 3154 3154 3155 3156 3156 3156 3157 3156 3156 3155 3154 3154 3155 3154 3154 3154 3154 3153 3152 3150 3149 3151 3152 3152 3151 3149 3147 3147 3146 3145 3144 3147 3148 3148 3150 3151 3151 3151 3150 3149 3150 3152 3153 3152 3152 3154 3155 3156 3157 3158 3159 3160 3159 3159 3159 3161 3163 3162 3160 3161 3161 3161 3161 3161 3163 3165 3168 3171 3173 3175
3157 3157 3156 3156 3157 3157 3158 3159 3161 3162 3163 3164 3164 3163 3162 3159 3156 3155 3155 3155 3156 3156 3156 3155 3155 3155 3153 3152 3153 3154 3153 3153 3154 3154 3153 3152 3151 3150 3150 3151 3152 3153 3152 3151 3149 3148 3146 3145 3146 3148 3149 3150 3151 3151 3151 3152 3149 3149 3150 3150 3151 3152 3153 3153 3154 3155 3156 3157 3161 3161 3158 3159 3159 3161 3162 3162 3161 3162 3161 3160 3160 3161 3162 3164 3166 3169 3171 3173
3156 3155 3155 3155 3155 3155 3157 3158 3160 3161 3162 3163 3162 3160 3159 3158 3156 3156 3156 3156 3156 3156 3156 3155 3153 3153 3151 3149 3151 3153 3152 3152 3152 3152 3151 3151 3150 3150 3152 3152 3152 3154 3154 3153 3152 3150 3148 3147 3147 3148 3148 3148 3150 3150 3151 3151 3150 3150 3149 3148 3150 3152 3152 3152 3154 3155 3154 3156 3161 3162 3160 3159 3160 3160 3161 3161 3162 3161 3161 3161 3160 3160 3161 3163 3165 3167 3169 3171
3154 3154 3154 3154 3153 3154 3155 3156 3158 3160 3161 3161 3160 3159 3158 3156 3156 3157 3156 3156 3157 3157 3156 3154 3152 3152 3151 3148 3148 3150 3150 3150 3150 3150 3149 3150 3150 3150 3152 3151 3152 3154 3154 3154 3153 3151 3150 3149 3147 3147 3148 3147 3149 3149 3149 3149 3149 3149 3148 3148 3151 3153 3153 3153 3154 3154 3154 3157 3160 3160 3160 3160 3160 3160 3161 3162 3162 3161 3161 3163 3162 3160 3161 3162 3165 3167 3168 3170
3153 3153 3153 3152 3152 3153 3154 3155 3157 3158 3159 3160 3159 3158 3157 3156 3156 3156 3155 3156 3157 3156 3155 3154 3152 3152 3150 3148 3148 3149 3149 3149 3151 3150 3149 3151 3151 3150 3151 3151 3151 3153 3153 3153 3153 3151 3151 3150 3147 3148 3149 3148 3147 3147 3147 3147 3148 3148 3147 3148 3151 3153 3154 3154 3154 3152 3152 3156 3160 3159 3160 3160 3160 3160 3161 3161 3162 3160 3161 3162 3161 3160 3161 3162 3164 3166 3167 3168
3152 3153 3153 3152 3151 3152 3153 3154 3156 3157 3157 3157 3157 3156 3156 3156 3155 3155 3155 3155 3156 3155 3154 3154 3153 3152 3150 3150 3150 3150 3149 3149 3151 3151 3150 3151 3151 3150 3152 3152 3152 3153 3152 3152 3152 3151 3151 3151 3149 3148 3149 3149 3148 3146 3146 3146 3147 3147 3147 3148 3150 3152 3154 3154 3152 3150 3149 3154 3159 3161 3161 3160 3159 3160 3160 3160 3161 3160 3160 3161 3161 3161 3162 3161 3163 3165 3164 3162
3152 3153 3153 3151 3151 3152 3153 3153 3154 3155 3155 3155 3155 3154 3154 3154 3154 3154 3154 3155 3155 3154 3154 3153 3152 3152 3151 3150 3150 3150 3149 3149 3150 3151 3149 3149 3150 3150 3151 3152 3152 3153 3152 3151 3151 3151 3150 3150 3149 3149 3151 3151 3150 3148 3147 3146 3146 3147 3147 3149 3150 3150 3151 3151 3149 3148 3149 3152 3155 3159 3160 3160 3160 3160 3159 3160 3161 3161 3161 3162 3161 3161 3162 3161 3162 3162 3158 3157
3151 3153 3153 3150 3150 3151 3152 3153 3153 3153 3154 3154 3154 3153 3153 3153 3153 3154 3154 3154 3154 3154 3154 3153 3153 3153 3152 3150 3149 3150 3150 3149 3150 3151 3149 3149 3150 3150 3151 3152 3153 3154 3154 3153 3152 3150 3150 3151 3151 3151 3152 3152 3151 3150 3150 3149 3148 3149 3150 3151 3152 3151 3151 3150 3148 3149 3150 3151 3153 3156 3157 3159 3160 3159 3158 3160 3163 3163 3161 3161 3160 3161 3162 3162 3161 3160 3157 3157
3149 3150 3151 3149 3149 3150 3151 3152 3152 3152 3152 3152 3152 3151 3152 3152 3153 3153 3153 3153 3153 3153 3153 3154 3153 3153 3153 3151 3151 3151 3151 3150 3149 3149 3149 3150 3150 3149 3151 3153 3153 3154 3155 3154 3152 3149 3150 3153 3153 3152 3152 3151 3150 3150 3150 3150 3150 3150 3151 3152 3152 3152 3151 3150 3149 3150 3150 3150 3153 3155 3156 3158 3159 3158 3158 3161 3163 3163 3161 3160 3160 3162 3163 3163 3163 3162 3161 3162
3147 3148 3149 3148 3147 3148 3150 3150 3151 3151 3150 3151 3151 3149 3150 3151 3151 3152 3152 3152 3152 3152 3152 3153 3153 3152 3152 3151 3151 3151 3151 3150 3149 3148 3148 3150 3150 3149 3151 3152 3153 3154 3154 3152 3152 3150 3151 3153 3153 3152 3152 3152 3151 3151 3150 3150 3150 3150 3150 3151 3152 3152 3153 3152 3151 3152 3151 3151 3153 3154 3156 3158 3157 3157 3160 3162 3161 3162 3161 3160 3162 3164 3164 3162 3163 3162 3162 3163
3146 3147 3148 3147 3145 3146 3147 3148 3149 3149 3149 3149 3149 3148 3148 3149 3149 3150 3151 3151 3151 3151 3151 3151 3151 3151 3151 3151 3152 3152 3151 3150 3149 3149 3149 3151 3150 3149 3150 3151 3153 3154 3152 3151 3151 3151 3152 3153 3152 3152 3153 3153 3153 3153 3152 3151 3150 3150 3150 3151 3152 3153 3153 3153 3152 3153 3152 3152 3153 3153 3155 3157 3157 3158 3161 3161 3161 3161 3162 3161 3162 3163 3163 3161 3162 3163 3162 3163
3145 3146 3147 3147 3145 3144 3145 3146 3147 3147 3147 3147 3146 3147 3147 3146 3146 3147 3148 3149 3149 3149 3150 3150 3149 3150 3150 3151 3151 3151 3151 3151 3150 3150 3150 3150 3150 3149 3148 3150 3152 3152 3150 3150 3151 3151 3153 3153 3152 3153 3154 3154 3153 3153 3153 3152 3151 3150 3150 3151 3152 3152 3153 3154 3153 3152 3152 3152 3151 3152 3153 3155 3156 3158 3160 3160 3160 3160 3161 3162 3162 3162 3162 3162 3162 3163 3163 3163
3144 3145 3147 3146 3144 3144 3144 3145 3145 3146 3146 3146 3145 3144 3143 3143 3144 3145 3145 3146 3148 3148 3148 3149 3149 3149 3149 3150 3151 3150 3151 3151 3150 3150 3149 3148 3148 3148 3148 3148 3150 3150 3149 3151 3151 3152 3153 3152 3151 3152 3153 3153 3153 3152 3151 3151 3150 3150 3150 3150 3151 3151 3152 3153 3152 3152 3153 3152 3151 3151 3153 3155 3156 3157 3158 3158 3158 3158 3160 3162 3163 3163 3163 3163 3163 3163 3163 3163
3142 3143 3144 3143 3142 3143 3144 3144 3144 3144 3144 3144 3144 3143 3141 3141 3143 3143 3142 3144 3146 3147 3147 3147 3147 3148 3148 3148 3148 3147 3148 3149 3149 3148 3148 3147 3148 3148 3147 3147 3148 3148 3149 3150 3150 3151 3152 3150 3149 3150 3151 3151 3151 3151 3150 3150 3149 3149 3150 3149 3150 3151 3151 3152 3152 3152 3154 3153 3151 3151 3152 3154 3155 3156 3156 3156 3157 3157 3158 3160 3163 3163 3162 3162 3163 3162 3162 3162
3141 3139 3139 3138 3139 3140 3141 3141 3141 3141 3141 3141 3141 3141 3141 3141 3141 3142 3142 3141 3143 3145 3146 3145 3146 3147 3148 3147 3147 3145 3145 3146 3146 3146 3147 3147 3149 3149 3148 3147 3147 3147 3148 3149 3149 3149 3149 3149 3148 3150 3150 3150 3150 3150 3149 3149 3149 3149 3149 3149 3149 3149 3150 3150 3150 3152 3153 3152 3151 3151 3152 3153 3154 3154 3155 3155 3155 3156 3156 3157 3160 3162 3162 3162 3162 3161 3161 3161
3138 3136 3136 3136 3136 3137 3137 3138 3139 3140 3140 3140 3139 3139 3140 3140 3140 3140 3141 3140 3141 3142 3144 3144 3145 3145 3146 3146 3145 3145 3145 3145 3145 3146 3147 3148 3148 3148 3148 3147 3147 3148 3148 3148 3147 3148 3148 3148 3148 3149 3149 3149 3149 3149 3149 3149 3148 3148 3148 3149 3149 3148 3148 3148 3149 3151 3152 3151 3151 3152 3152 3151 3152 3154 3154 3154 3153 3154 3155 3155 3157 3160 3162 3162 3161 3160 3160 3160
3135 3135 3135 3134 3134 3135 3135 3136 3138 3139 3139 3139 3139 3139 3140 3140 3140 3140 3139 3139 3140 3140 3142 3143 3144 3144 3144 3143 3143 3143 3145 3146 3145 3146 3147 3147 3146 3146 3147 3147 3147 3147 3147 3147 3146 3146 3147 3147 3146 3147 3148 3148 3148 3148 3148 3148 3148 3148 3148 3148 3149 3148 3147 3147 3148 3149 3150 3150 3151 3152 3152 3151 3152 3154 3153 3152 3152 3152 3153 3154 3156 3157 3160 3160 3160 3159 3159 3159
3134 3134 3133 3133 3132 3133 3134 3135 3137 3137 3137 3137 3138 3139 3139 3139 3140 3140 3138 3137 3138 3139 3140 3141 3142 3143 3143 3142 3142 3143 3144 3145 3145 3146 3146 3145 3144 3145 3145 3145 3145 3146 3146 3146 3145 3145 3146 3146 3145 3146 3146 3146 3147 3147 3147 3147 3147 3146 3147 3148 3149 3148 3147 3147 3148 3149 3149 3151 3152 3152 3152 3152 3152 3153 3152 3151 3151 3151 3151 3152 3154 3156 3157 3158 3158 3157 3158 3159